Builderall vs Clickfunnels vs Kartra

SandovalNeville2661 | 2022.02.20 12:38 | 조회 13
Are Clickfunnels alternatives looking for the #1 CLICKFUNNELS ALTERNATIVE ? Builderall vs Clickfunnels will give you Real World-Experience Review and information You can Trust
twitter facebook me2day 요즘
1,427,657개(29639/71383페이지)
LECTURE
번호 제목 글쓴이 조회 날짜
834897 Black Camouflaged Poker Spade T-shirt cr KeithShoemaker0522 14 2022.02.20 13:00
834896 Have Questions About Chiropractic care C McClellanMahmoud5058 15 2022.02.20 12:59
834895 Báo Bóng Đá DiazFoldager3199 13 2022.02.20 12:59
834894 It Is Our Job To Coach Yourself On Web M BrinkValentine2850 8 2022.02.20 12:59
834893 79 Lat Temu Rozpoczęła Się II Wojna świa 사진 BrandstrupAllen3833 10 2022.02.20 12:59
834892 Bet On Sports - How To Place Bets On Spo HelboHarboe4248 13 2022.02.20 12:59
834891 Boost Your Human Hair Wigs With The Foll EngelSchmidt2892 8 2022.02.20 12:59
834890 What you ought to Know When Searching Fo AxelsenChristiansen9282 13 2022.02.20 12:58
834889 Chi Tiết Về 90ptv 90 Phút Television Trự WindButcher6202 20 2022.02.20 12:58
834888 Using Blackjack Strategy Card To Get - T KellerKhan7121 8 2022.02.20 12:58
834887 If You Wish Speedy Recommendations Regar PilegaardHarper4305 12 2022.02.20 12:58
834886 Learn How To Win Online Poker JosephsenPrince1014 18 2022.02.20 12:58
834885 Online Video Marketing Can Help You Loca FeldmanErichsen8038 17 2022.02.20 12:57
834884 Online Poker Strategy That Works For Any CollinsLangley0885 8 2022.02.20 12:57
834883 Situs Judi Slots Online Terbaik yang Sem HunterHickey7933 9 2022.02.20 12:57
834882 Promotion Recommendations It Is Possible PaulGlover6126 11 2022.02.20 12:57
834881 Drukuj Stronę - Kastracja 사진 LaursenChristensen1420 9 2022.02.20 12:57
834880 Attempt Some Video XXX Marketing Guideli RiceCaspersen4190 10 2022.02.20 12:57
834879 Online Dating 101 - Online Dating Basics WeinerBaxter5166 10 2022.02.20 12:57
834878 DAKING. CO - MARKETING TOOL AND TAKE INT ThestrupBusch7357 7 2022.02.20 12:56